Location: La Bastide
(43.1661°N, 1.2755°E)
Time: 00:56:31
(UTC+00:00)

Cosmos 1953 Rocket - Pass Details

Date: 13 December 2025
Orbit: 598 x 627 km, 82.5° (Epoch: 19 January)

Event Time Altitude Azimuth Distance (km) Brightness Sun altitude
Rises 17:42:28 0° 352° (N) 2,918 6.9 -14.4°
Reaches altitude 10° 17:44:43 10° 353° (N) 2,009 6.1 -14.8°
Maximum altitude 17:49:11 84° 82° (E) 637 3.5 -15.6°
Drops below altitude 10° 17:53:37 10° 171° (S) 1,996 6.3 -16.4°
Sets 17:55:50 0° 172° (S) 2,897 7.1 -16.8°
